Location: Dittelspoint
(48.7198°N, 10.7214°E)
Time: 13:20:08
(UTC+00:00)

STARLINK-1270 - Pass Details

Date: 09 April 2020
Orbit: 378 x 381 km, 53.0° (Epoch: 28 May)

Event Time Altitude Azimuth Distance (km) Brightness Sun altitude
Rises 19:52:41 0° 291° (WNW) 2,260 8.3 -17.6°
Reaches altitude 10° 19:54:54 10° 280° (W) 1,402 6.7 -17.9°
Maximum altitude 19:57:39 28° 218° (SW) 747 4.3 -18.3°
Enters shadow 19:57:55 28° 208° (SSW) 755 4.2 -18.3°
